Location: Maiden
(35.5760°N, 81.2120°W)
Time: 03:15:04
(UTC-04:00)

Ariane Rocket - Pass Details

Date: 02 August 2020
Orbit: 759 x 771 km, 98.7° (Epoch: 11 August)

Event Time Altitude Azimuth Distance (km) Brightness Sun altitude
Rises 21:31:17 0° 178° (S) 3,218 5.9 -12.4°
Reaches altitude 10° 21:33:38 10° 183° (S) 2,295 5.2 -12.8°
Maximum altitude 21:38:34 52° 259° (W) 947 3.8 -13.6°
Drops below altitude 10° 21:43:30 10° 336° (NNW) 2,302 6.4 -14.5°
Sets 21:45:52 0° 341° (NNW) 3,230 7.2 -14.9°
